Time,TemperatureF,DewpointF,PressureIn,WindDirection,WindDirectionDegrees,WindSpeedMPH,WindSpeedGustMPH,Humidity,HourlyPrecipIn,Conditions,Clouds,dailyrainin,SoftwareType,DateUTC
2013-04-18 00:00:00,41.6,27.9,30.32,NE,46,0.0,0.0,58,0.00,,,0.00,Wunderground v.1.15,2013-04-18 04:00:00,
2013-04-18 00:05:00,41.6,27.9,30.32,NE,45,0.0,0.0,58,0.00,,,0.00,Wunderground v.1.15,2013-04-18 04:05:00,
2013-04-18 00:15:00,41.4,27.7,30.33,NE,45,0.0,0.0,58,0.00,,,0.00,Wunderground v.1.15,2013-04-18 04:15:00,
2013-04-18 00:20:00,41.3,27.6,30.33,NE,46,0.0,0.0,58,0.00,,,0.00,Wunderground v.1.15,2013-04-18 04:20:00,
2013-04-18 00:25:00,41.2,27.5,30.33,NE,46,0.0,0.0,58,0.00,,,0.00,Wunderground v.1.15,2013-04-18 04:25:00,
2013-04-18 00:30:00,41.1,27.9,30.33,NE,45,0.0,0.0,59,0.00,,,0.00,Wunderground v.1.15,2013-04-18 04:30:00,
2013-04-18 00:35:00,40.9,28.1,30.34,NE,46,0.0,0.0,60,0.00,,,0.00,Wunderground v.1.15,2013-04-18 04:35:00,
2013-04-18 00:45:00,40.7,27.9,30.34,NE,45,0.0,0.0,60,0.00,,,0.00,Wunderground v.1.15,2013-04-18 04:45:00,
2013-04-18 00:50:00,41.0,27.3,30.34,NE,45,0.0,0.0,58,0.00,,,0.00,Wunderground v.1.15,2013-04-18 04:50:00,
2013-04-18 01:00:00,41.1,27.4,30.34,NE,46,0.0,0.0,58,0.00,,,0.00,Wunderground v.1.15,2013-04-18 05:00:00,
2013-04-18 01:05:00,41.2,27.1,30.34,NE,46,0.0,0.0,57,0.00,,,0.00,Wunderground v.1.15,2013-04-18 05:05:00,
2013-04-18 01:15:00,41.4,27.7,30.34,NE,46,0.0,0.0,58,0.00,,,0.00,Wunderground v.1.15,2013-04-18 05:15:00,
2013-04-18 01:20:00,41.4,26.9,30.35,NE,45,0.0,0.0,56,0.00,,,0.00,Wunderground v.1.15,2013-04-18 05:20:00,
2013-04-18 01:25:00,41.5,27.0,30.34,NE,45,0.0,0.0,56,0.00,,,0.00,Wunderground v.1.15,2013-04-18 05:25:00,
2013-04-18 01:35:00,41.1,26.6,30.34,NE,46,0.0,0.0,56,0.00,,,0.00,Wunderground v.1.15,2013-04-18 05:35:00,
2013-04-18 01:40:00,40.6,27.0,30.34,NE,46,0.0,0.0,58,0.00,,,0.00,Wunderground v.1.15,2013-04-18 05:40:00,
2013-04-18 01:45:00,40.0,27.2,30.33,NE,46,0.0,0.0,60,0.00,,,0.00,Wunderground v.1.15,2013-04-18 05:45:00,
2013-04-18 01:55:00,39.6,26.4,30.33,NE,46,0.0,0.0,59,0.00,,,0.00,Wunderground v.1.15,2013-04-18 05:55:00,
2013-04-18 02:05:00,38.9,27.4,30.34,NE,46,0.0,0.0,63,0.00,,,0.00,Wunderground v.1.15,2013-04-18 06:05:00,
2013-04-18 02:10:00,38.8,27.3,30.33,NE,46,0.0,0.0,63,0.00,,,0.00,Wunderground v.1.15,2013-04-18 06:10:00,
2013-04-18 02:20:00,38.7,27.2,30.33,NE,45,0.0,0.0,63,0.00,,,0.00,Wunderground v.1.15,2013-04-18 06:20:00,
2013-04-18 02:25:00,38.6,27.5,30.34,NE,46,0.0,0.0,64,0.00,,,0.00,Wunderground v.1.15,2013-04-18 06:25:00,
2013-04-18 02:30:00,38.4,27.3,30.34,NE,45,0.0,0.0,64,0.00,,,0.00,Wunderground v.1.15,2013-04-18 06:30:00,
2013-04-18 02:35:00,38.3,27.6,30.34,NE,46,0.0,0.0,65,0.00,,,0.00,Wunderground v.1.15,2013-04-18 06:35:00,
2013-04-18 02:45:00,38.5,27.7,30.34,NE,45,0.0,0.0,65,0.00,,,0.00,Wunderground v.1.15,2013-04-18 06:45:00,
2013-04-18 02:55:00,38.6,27.5,30.34,NE,46,0.0,0.0,64,0.00,,,0.00,Wunderground v.1.15,2013-04-18 06:55:00,
2013-04-18 03:05:00,38.5,27.0,30.34,NE,45,0.0,0.0,63,0.00,,,0.00,Wunderground v.1.15,2013-04-18 07:05:00,
2013-04-18 03:15:00,38.0,27.3,30.35,NE,45,0.0,0.0,65,0.00,,,0.00,Wunderground v.1.15,2013-04-18 07:15:00,
2013-04-18 03:20:00,37.9,27.2,30.36,NE,46,0.0,0.0,65,0.00,,,0.00,Wunderground v.1.15,2013-04-18 07:20:00,
2013-04-18 03:25:00,37.9,27.2,30.35,NE,45,0.0,0.0,65,0.00,,,0.00,Wunderground v.1.15,2013-04-18 07:25:00,
2013-04-18 03:35:00,38.3,26.8,30.36,NE,46,0.0,0.0,63,0.00,,,0.00,Wunderground v.1.15,2013-04-18 07:35:00,
2013-04-18 03:45:00,39.4,27.1,30.37,NE,46,0.0,0.0,61,0.00,,,0.00,Wunderground v.1.15,2013-04-18 07:45:00,
2013-04-18 03:50:00,39.4,26.7,30.37,NE,45,0.0,0.0,60,0.00,,,0.00,Wunderground v.1.15,2013-04-18 07:50:00,
2013-04-18 03:55:00,39.3,27.0,30.38,NE,46,0.0,0.0,61,0.00,,,0.00,Wunderground v.1.15,2013-04-18 07:55:00,
2013-04-18 04:05:00,39.1,26.8,30.38,NE,46,0.0,0.0,61,0.00,,,0.00,Wunderground v.1.15,2013-04-18 08:05:00,
2013-04-18 04:10:00,38.9,27.0,30.39,NE,46,0.0,0.0,62,0.00,,,0.00,Wunderground v.1.15,2013-04-18 08:10:00,
2013-04-18 04:15:00,38.4,26.9,30.39,NE,46,0.0,0.0,63,0.00,,,0.00,Wunderground v.1.15,2013-04-18 08:15:00,
2013-04-18 04:25:00,37.8,27.1,30.39,NE,46,0.0,0.0,65,0.00,,,0.00,Wunderground v.1.15,2013-04-18 08:25:00,
2013-04-18 04:35:00,36.8,26.5,30.39,NE,46,0.0,0.0,66,0.00,,,0.00,Wunderground v.1.15,2013-04-18 08:35:00,
2013-04-18 04:40:00,36.4,26.5,30.39,NE,45,0.0,0.0,67,0.00,,,0.00,Wunderground v.1.15,2013-04-18 08:40:00,
2013-04-18 04:50:00,36.8,26.9,30.39,NE,46,0.0,0.0,67,0.00,,,0.00,Wunderground v.1.15,2013-04-18 08:50:00,
2013-04-18 04:55:00,37.4,27.1,30.39,NE,46,0.0,0.0,66,0.00,,,0.00,Wunderground v.1.15,2013-04-18 08:55:00,
2013-04-18 05:00:00,36.9,26.6,30.39,NE,46,0.0,0.0,66,0.00,,,0.00,Wunderground v.1.15,2013-04-18 09:00:00,
2013-04-18 05:05:00,36.5,26.2,30.39,NE,46,0.0,0.0,66,0.00,,,0.00,Wunderground v.1.15,2013-04-18 09:05:00,
2013-04-18 05:15:00,35.7,26.5,30.39,NE,46,0.0,0.0,69,0.00,,,0.00,Wunderground v.1.15,2013-04-18 09:15:00,
2013-04-18 05:25:00,35.9,27.1,30.39,NE,46,0.0,0.0,70,0.00,,,0.00,Wunderground v.1.15,2013-04-18 09:25:00,
2013-04-18 05:30:00,36.1,27.3,30.39,NE,46,0.0,0.0,70,0.00,,,0.00,Wunderground v.1.15,2013-04-18 09:30:00,
2013-04-18 05:35:00,36.6,26.3,30.39,NE,46,0.0,0.0,66,0.00,,,0.00,Wunderground v.1.15,2013-04-18 09:35:00,
2013-04-18 05:45:00,37.4,25.9,30.39,NE,46,0.0,0.0,63,0.00,,,0.00,Wunderground v.1.15,2013-04-18 09:45:00,
2013-04-18 05:55:00,37.5,26.0,30.38,NE,46,0.0,0.0,63,0.00,,,0.00,Wunderground v.1.15,2013-04-18 09:55:00,
2013-04-18 06:00:00,37.1,25.7,30.38,NE,45,0.0,0.0,63,0.00,,,0.00,Wunderground v.1.15,2013-04-18 10:00:00,
2013-04-18 06:10:00,36.7,26.0,30.39,NE,46,0.0,0.0,65,0.00,,,0.00,Wunderground v.1.15,2013-04-18 10:10:00,
2013-04-18 06:15:00,37.0,26.3,30.39,NE,45,0.0,0.0,65,0.00,,,0.00,Wunderground v.1.15,2013-04-18 10:15:00,
2013-04-18 06:20:00,37.5,26.4,30.39,NE,46,0.0,0.0,64,0.00,,,0.00,Wunderground v.1.15,2013-04-18 10:20:00,
2013-04-18 06:25:00,37.9,26.0,30.39,NE,45,0.0,0.0,62,0.00,,,0.00,Wunderground v.1.15,2013-04-18 10:25:00,
2013-04-18 06:35:00,38.8,25.7,30.39,NE,46,0.0,0.0,59,0.00,,,0.00,Wunderground v.1.15,2013-04-18 10:35:00,
2013-04-18 06:45:00,39.3,26.2,30.40,NE,45,0.0,0.0,59,0.00,,,0.00,Wunderground v.1.15,2013-04-18 10:45:00,
2013-04-18 06:55:00,39.5,26.3,30.41,NE,45,0.0,0.0,59,0.00,,,0.00,Wunderground v.1.15,2013-04-18 10:55:00,
2013-04-18 07:05:00,40.0,26.8,30.41,NE,46,0.0,0.0,59,0.00,,,0.00,Wunderground v.1.15,2013-04-18 11:05:00,
2013-04-18 07:10:00,40.4,27.2,30.41,NE,45,0.0,0.0,59,0.00,,,0.00,Wunderground v.1.15,2013-04-18 11:10:00,
2013-04-18 07:15:00,40.8,27.2,30.41,NE,47,0.0,0.0,58,0.00,,,0.00,Wunderground v.1.15,2013-04-18 11:15:00,
2013-04-18 07:25:00,41.6,27.5,30.42,ENE,69,0.0,0.0,57,0.00,,,0.00,Wunderground v.1.15,2013-04-18 11:25:00,
2013-04-18 07:30:00,42.0,27.4,30.42,East,79,0.0,1.0,56,0.00,,,0.00,Wunderground v.1.15,2013-04-18 11:30:00,
2013-04-18 07:40:00,41.9,27.3,30.42,ENE,76,0.0,2.0,56,0.00,,,0.00,Wunderground v.1.15,2013-04-18 11:40:00,
2013-04-18 07:45:00,41.8,27.7,30.42,East,90,1.0,2.0,57,0.00,,,0.00,Wunderground v.1.15,2013-04-18 11:45:00,
2013-04-18 07:55:00,41.8,28.1,30.41,ENE,77,1.0,2.0,58,0.00,,,0.00,Wunderground v.1.15,2013-04-18 11:55:00,
2013-04-18 08:00:00,41.6,27.5,30.42,ENE,70,1.0,3.0,57,0.00,,,0.00,Wunderground v.1.15,2013-04-18 12:00:00,
2013-04-18 08:05:00,42.0,27.9,30.42,ENE,72,1.0,3.0,57,0.00,,,0.00,Wunderground v.1.15,2013-04-18 12:05:00,
2013-04-18 08:15:00,42.9,26.9,30.42,East,82,2.0,2.0,53,0.00,,,0.00,Wunderground v.1.15,2013-04-18 12:15:00,
2013-04-18 08:20:00,43.2,28.1,30.42,ENE,78,2.0,4.0,55,0.00,,,0.00,Wunderground v.1.15,2013-04-18 12:20:00,
2013-04-18 08:25:00,43.4,26.9,30.41,East,86,2.0,6.0,52,0.00,,,0.00,Wunderground v.1.15,2013-04-18 12:25:00,
2013-04-18 08:35:00,44.1,28.0,30.41,ENE,74,3.0,3.0,53,0.00,,,0.00,Wunderground v.1.15,2013-04-18 12:35:00,
2013-04-18 08:40:00,44.0,27.0,30.41,East,99,4.0,4.0,51,0.00,,,0.00,Wunderground v.1.15,2013-04-18 12:40:00,
2013-04-18 08:50:00,44.5,26.5,30.40,ESE,103,5.0,5.0,49,0.00,,,0.00,Wunderground v.1.15,2013-04-18 12:50:00,
2013-04-18 08:55:00,44.7,25.7,30.40,East,90,6.0,6.0,47,0.00,,,0.00,Wunderground v.1.15,2013-04-18 12:55:00,
2013-04-18 09:05:00,45.6,26.5,30.40,East,81,4.0,6.0,47,0.00,,,0.00,Wunderground v.1.15,2013-04-18 13:05:00,
2013-04-18 09:15:00,46.7,26.5,30.39,SE,142,3.0,5.0,45,0.00,,,0.00,Wunderground v.1.15,2013-04-18 13:15:00,
2013-04-18 09:25:00,47.9,27.0,30.40,SE,144,4.0,11.0,44,0.00,,,0.00,Wunderground v.1.15,2013-04-18 13:25:00,
2013-04-18 09:35:00,47.7,26.3,30.40,East,96,5.0,10.0,43,0.00,,,0.00,Wunderground v.1.15,2013-04-18 13:35:00,
2013-04-18 09:40:00,47.9,26.5,30.39,SE,125,4.0,8.0,43,0.00,,,0.00,Wunderground v.1.15,2013-04-18 13:40:00,
2013-04-18 09:45:00,47.9,25.9,30.39,SE,146,4.0,9.0,42,0.00,,,0.00,Wunderground v.1.15,2013-04-18 13:45:00,
2013-04-18 09:55:00,47.3,25.3,30.39,ESE,113,5.0,5.0,42,0.00,,,0.00,Wunderground v.1.15,2013-04-18 13:55:00,
2013-04-18 10:00:00,48.1,25.5,30.39,SSE,153,5.0,5.0,41,0.00,,,0.00,Wunderground v.1.15,2013-04-18 14:00:00,
2013-04-18 10:05:00,49.2,29.3,30.39,SE,130,4.0,7.0,46,0.00,,,0.00,Wunderground v.1.15,2013-04-18 14:05:00,
2013-04-18 10:15:00,48.5,26.4,30.38,East,94,5.0,5.0,42,0.00,,,0.00,Wunderground v.1.15,2013-04-18 14:15:00,
2013-04-18 10:25:00,48.0,26.0,30.37,SSE,150,3.0,6.0,42,0.00,,,0.00,Wunderground v.1.15,2013-04-18 14:25:00,
2013-04-18 10:30:00,47.9,25.9,30.37,SSE,155,3.0,3.0,42,0.00,,,0.00,Wunderground v.1.15,2013-04-18 14:30:00,
2013-04-18 10:35:00,48.9,27.4,30.37,ESE,109,3.0,5.0,43,0.00,,,0.00,Wunderground v.1.15,2013-04-18 14:35:00,
2013-04-18 10:45:00,48.8,27.3,30.37,East,100,5.0,10.0,43,0.00,,,0.00,Wunderground v.1.15,2013-04-18 14:45:00,
2013-04-18 10:50:00,49.0,29.1,30.38,SE,142,5.0,5.0,46,0.00,,,0.00,Wunderground v.1.15,2013-04-18 14:50:00,
2013-04-18 10:55:00,49.5,28.5,30.38,SE,126,3.0,5.0,44,0.00,,,0.00,Wunderground v.1.15,2013-04-18 14:55:00,
2013-04-18 11:05:00,51.5,30.8,30.38,SSW,202,3.0,5.0,45,0.00,,,0.00,Wunderground v.1.15,2013-04-18 15:05:00,
2013-04-18 11:15:00,51.6,30.4,30.37,South,179,4.0,5.0,44,0.00,,,0.00,Wunderground v.1.15,2013-04-18 15:15:00,
2013-04-18 11:20:00,52.4,31.1,30.36,East,101,5.0,11.0,44,0.00,,,0.00,Wunderground v.1.15,2013-04-18 15:20:00,
2013-04-18 11:25:00,51.6,29.8,30.36,ESE,110,7.0,11.0,43,0.00,,,0.00,Wunderground v.1.15,2013-04-18 15:25:00,
2013-04-18 11:35:00,52.1,30.8,30.35,ESE,120,7.0,7.0,44,0.00,,,0.00,Wunderground v.1.15,2013-04-18 15:35:00,
2013-04-18 11:45:00,52.4,30.0,30.34,SSE,151,5.0,6.0,42,0.00,,,0.00,Wunderground v.1.15,2013-04-18 15:45:00,
2013-04-18 11:50:00,52.7,31.9,30.34,SSW,198,4.0,4.0,45,0.00,,,0.00,Wunderground v.1.15,2013-04-18 15:50:00,
2013-04-18 11:55:00,53.6,32.8,30.35,SE,144,2.0,5.0,45,0.00,,,0.00,Wunderground v.1.15,2013-04-18 15:55:00,
2013-04-18 12:05:00,54.2,30.4,30.34,SSE,153,4.0,4.0,40,0.00,,,0.00,Wunderground v.1.15,2013-04-18 16:05:00,
2013-04-18 12:15:00,53.0,31.1,30.33,SSE,161,3.0,3.0,43,0.00,,,0.00,Wunderground v.1.15,2013-04-18 16:15:00,
2013-04-18 12:20:00,52.9,31.0,30.32,South,169,3.0,3.0,43,0.00,,,0.00,Wunderground v.1.15,2013-04-18 16:20:00,
2013-04-18 12:25:00,53.6,32.8,30.33,South,178,4.0,4.0,45,0.00,,,0.00,Wunderground v.1.15,2013-04-18 16:25:00,
2013-04-18 12:35:00,54.8,32.1,30.31,South,186,4.0,7.0,42,0.00,,,0.00,Wunderground v.1.15,2013-04-18 16:35:00,
2013-04-18 12:40:00,54.4,31.8,30.31,SSW,206,5.0,5.0,42,0.00,,,0.00,Wunderground v.1.15,2013-04-18 16:40:00,
2013-04-18 12:45:00,53.7,31.7,30.30,SSW,211,6.0,6.0,43,0.00,,,0.00,Wunderground v.1.15,2013-04-18 16:45:00,
2013-04-18 12:55:00,53.8,32.9,30.30,SSE,157,4.0,8.0,45,0.00,,,0.00,Wunderground v.1.15,2013-04-18 16:55:00,
2013-04-18 13:05:00,53.5,32.1,30.30,SSE,159,4.0,5.0,44,0.00,,,0.00,Wunderground v.1.15,2013-04-18 17:05:00,
2013-04-18 13:10:00,53.6,32.2,30.30,SSE,150,3.0,3.0,44,0.00,,,0.00,Wunderground v.1.15,2013-04-18 17:10:00,
2013-04-18 13:15:00,53.4,30.9,30.30,SW,217,3.0,4.0,42,0.00,,,0.00,Wunderground v.1.15,2013-04-18 17:15:00,
2013-04-18 13:25:00,53.9,31.9,30.29,South,185,3.0,4.0,43,0.00,,,0.00,Wunderground v.1.15,2013-04-18 17:25:00,
2013-04-18 13:30:00,54.3,32.8,30.29,SW,223,3.0,10.0,44,0.00,,,0.00,Wunderground v.1.15,2013-04-18 17:30:00,
2013-04-18 13:35:00,54.8,32.7,30.29,SE,137,3.0,10.0,43,0.00,,,0.00,Wunderground v.1.15,2013-04-18 17:35:00,
2013-04-18 13:45:00,55.5,33.3,30.28,SSE,165,4.0,6.0,43,0.00,,,0.00,Wunderground v.1.15,2013-04-18 17:45:00,
2013-04-18 13:50:00,56.4,33.0,30.28,SE,137,2.0,7.0,41,0.00,,,0.00,Wunderground v.1.15,2013-04-18 17:50:00,
2013-04-18 13:55:00,57.3,31.9,30.28,SSE,167,4.0,7.0,38,0.00,,,0.00,Wunderground v.1.15,2013-04-18 17:55:00,
2013-04-18 14:05:00,56.5,32.4,30.27,SSW,194,4.0,11.0,40,0.00,,,0.00,Wunderground v.1.15,2013-04-18 18:05:00,
2013-04-18 14:15:00,55.1,31.8,30.27,South,171,4.0,10.0,41,0.00,,,0.00,Wunderground v.1.15,2013-04-18 18:15:00,
2013-04-18 14:20:00,55.9,33.1,30.27,SSE,158,3.0,6.0,42,0.00,,,0.00,Wunderground v.1.15,2013-04-18 18:20:00,
2013-04-18 14:30:00,55.7,32.9,30.27,SE,145,4.0,4.0,42,0.00,,,0.00,Wunderground v.1.15,2013-04-18 18:30:00,
2013-04-18 14:35:00,56.4,33.0,30.26,South,191,3.0,9.0,41,0.00,,,0.00,Wunderground v.1.15,2013-04-18 18:35:00,
2013-04-18 14:45:00,57.2,34.3,30.26,ESE,121,4.0,10.0,42,0.00,,,0.00,Wunderground v.1.15,2013-04-18 18:45:00,
2013-04-18 14:50:00,57.4,35.6,30.25,SSE,153,3.0,5.0,44,0.00,,,0.00,Wunderground v.1.15,2013-04-18 18:50:00,
2013-04-18 14:55:00,57.0,33.5,30.25,SSW,192,4.0,5.0,41,0.00,,,0.00,Wunderground v.1.15,2013-04-18 18:55:00,
2013-04-18 15:05:00,56.7,34.4,30.24,SSE,164,5.0,5.0,43,0.00,,,0.00,Wunderground v.1.15,2013-04-18 19:05:00,
2013-04-18 15:10:00,56.3,34.1,30.23,SE,138,5.0,5.0,43,0.00,,,0.00,Wunderground v.1.15,2013-04-18 19:10:00,
2013-04-18 15:15:00,56.2,35.7,30.23,SE,146,4.0,5.0,46,0.00,,,0.00,Wunderground v.1.15,2013-04-18 19:15:00,
2013-04-18 15:25:00,56.4,35.3,30.22,SE,129,4.0,7.0,45,0.00,,,0.00,Wunderground v.1.15,2013-04-18 19:25:00,
2013-04-18 15:35:00,57.1,35.4,30.22,SSE,148,4.0,5.0,44,0.00,,,0.00,Wunderground v.1.15,2013-04-18 19:35:00,
2013-04-18 15:40:00,57.3,35.0,30.21,SE,141,3.0,4.0,43,0.00,,,0.00,Wunderground v.1.15,2013-04-18 19:40:00,
2013-04-18 15:45:00,57.3,35.6,30.21,SE,132,3.0,4.0,44,0.00,,,0.00,Wunderground v.1.15,2013-04-18 19:45:00,
2013-04-18 15:55:00,57.8,36.0,30.21,SSE,156,5.0,5.0,44,0.00,,,0.00,Wunderground v.1.15,2013-04-18 19:55:00,
2013-04-18 16:00:00,58.0,36.8,30.21,South,171,3.0,3.0,45,0.00,,,0.00,Wunderground v.1.15,2013-04-18 20:00:00,
2013-04-18 16:05:00,57.8,36.0,30.21,SE,133,4.0,7.0,44,0.00,,,0.00,Wunderground v.1.15,2013-04-18 20:05:00,
2013-04-18 16:15:00,57.7,35.9,30.20,SSE,148,4.0,7.0,44,0.00,,,0.00,Wunderground v.1.15,2013-04-18 20:15:00,
2013-04-18 16:20:00,57.4,36.2,30.20,SE,136,5.0,6.0,45,0.00,,,0.00,Wunderground v.1.15,2013-04-18 20:20:00,
2013-04-18 16:25:00,57.1,36.5,30.20,SE,129,5.0,8.0,46,0.00,,,0.00,Wunderground v.1.15,2013-04-18 20:25:00,
2013-04-18 16:35:00,56.4,36.4,30.20,ESE,119,4.0,5.0,47,0.00,,,0.00,Wunderground v.1.15,2013-04-18 20:35:00,
2013-04-18 16:45:00,56.3,36.3,30.20,SSE,147,4.0,5.0,47,0.00,,,0.00,Wunderground v.1.15,2013-04-18 20:45:00,
2013-04-18 16:50:00,56.3,36.8,30.20,SSE,159,3.0,3.0,48,0.00,,,0.00,Wunderground v.1.15,2013-04-18 20:50:00,
2013-04-18 17:00:00,55.3,36.5,30.20,SE,136,5.0,5.0,49,0.00,,,0.00,Wunderground v.1.15,2013-04-18 21:00:00,
2013-04-18 17:05:00,54.8,36.0,30.19,SE,137,6.0,6.0,49,0.00,,,0.00,Wunderground v.1.15,2013-04-18 21:05:00,
2013-04-18 17:10:00,54.7,37.4,30.19,ESE,103,6.0,6.0,52,0.00,,,0.00,Wunderground v.1.15,2013-04-18 21:10:00,
2013-04-18 17:15:00,54.9,36.6,30.19,SSE,160,4.0,6.0,50,0.00,,,0.00,Wunderground v.1.15,2013-04-18 21:15:00,
2013-04-18 17:25:00,55.1,37.3,30.19,SE,126,3.0,3.0,51,0.00,,,0.00,Wunderground v.1.15,2013-04-18 21:25:00,
2013-04-18 17:35:00,54.8,36.5,30.18,SSE,150,4.0,4.0,50,0.00,,,0.00,Wunderground v.1.15,2013-04-18 21:35:00,
2013-04-18 17:45:00,54.5,36.7,30.18,SE,130,4.0,5.0,51,0.00,,,0.00,Wunderground v.1.15,2013-04-18 21:45:00,
2013-04-18 17:55:00,54.1,36.9,30.18,ESE,123,3.0,4.0,52,0.00,,,0.00,Wunderground v.1.15,2013-04-18 21:55:00,
2013-04-18 18:00:00,53.9,36.2,30.17,SE,138,4.0,6.0,51,0.00,,,0.00,Wunderground v.1.15,2013-04-18 22:00:00,
2013-04-18 18:05:00,53.9,36.7,30.17,South,184,4.0,6.0,52,0.00,,,0.00,Wunderground v.1.15,2013-04-18 22:05:00,
2013-04-18 18:15:00,53.9,36.7,30.16,SE,125,3.0,6.0,52,0.00,,,0.00,Wunderground v.1.15,2013-04-18 22:15:00,
2013-04-18 18:20:00,53.7,37.0,30.16,SE,140,3.0,3.0,53,0.00,,,0.00,Wunderground v.1.15,2013-04-18 22:20:00,
2013-04-18 18:25:00,53.6,36.4,30.17,SSE,157,2.0,3.0,52,0.00,,,0.00,Wunderground v.1.15,2013-04-18 22:25:00,
2013-04-18 18:35:00,53.4,36.2,30.16,SSE,147,3.0,3.0,52,0.00,,,0.00,Wunderground v.1.15,2013-04-18 22:35:00,
2013-04-18 18:45:00,53.3,37.1,30.16,SSE,154,3.0,6.0,54,0.00,,,0.00,Wunderground v.1.15,2013-04-18 22:45:00,
2013-04-18 18:50:00,53.2,36.5,30.16,SE,140,2.0,2.0,53,0.00,,,0.00,Wunderground v.1.15,2013-04-18 22:50:00,
2013-04-18 18:55:00,53.2,37.0,30.16,SSE,164,2.0,2.0,54,0.00,,,0.00,Wunderground v.1.15,2013-04-18 22:55:00,
2013-04-18 19:05:00,53.1,36.9,30.15,South,172,1.0,4.0,54,0.00,,,0.00,Wunderground v.1.15,2013-04-18 23:05:00,
2013-04-18 19:15:00,53.2,36.0,30.15,SE,146,1.0,1.0,52,0.00,,,0.00,Wunderground v.1.15,2013-04-18 23:15:00,
2013-04-18 19:20:00,53.4,36.2,30.15,SSE,149,2.0,4.0,52,0.00,,,0.00,Wunderground v.1.15,2013-04-18 23:20:00,
2013-04-18 19:25:00,53.4,36.2,30.15,ESE,109,2.0,4.0,52,0.00,,,0.00,Wunderground v.1.15,2013-04-18 23:25:00,
2013-04-18 19:35:00,53.7,34.5,30.15,SE,144,2.0,4.0,48,0.00,,,0.00,Wunderground v.1.15,2013-04-18 23:35:00,
2013-04-18 19:45:00,53.9,34.1,30.15,SSW,200,2.0,6.0,47,0.00,,,0.00,Wunderground v.1.15,2013-04-18 23:45:00,
2013-04-18 19:50:00,53.9,34.1,30.15,SSE,148,2.0,2.0,47,0.00,,,0.00,Wunderground v.1.15,2013-04-18 23:50:00,
2013-04-18 19:55:00,53.9,33.6,30.15,SSE,148,1.0,4.0,46,0.00,,,0.00,Wunderground v.1.15,2013-04-18 23:55:00,
2013-04-18 20:05:00,53.7,33.4,30.15,ESE,118,3.0,6.0,46,0.00,,,0.00,Wunderground v.1.15,2013-04-19 00:05:00,
2013-04-18 20:10:00,53.6,32.8,30.15,SSE,150,3.0,3.0,45,0.00,,,0.00,Wunderground v.1.15,2013-04-19 00:10:00,
2013-04-18 20:15:00,53.5,32.7,30.15,SSW,194,4.0,4.0,45,0.00,,,0.00,Wunderground v.1.15,2013-04-19 00:15:00,
2013-04-18 20:25:00,53.2,32.4,30.15,SE,144,4.0,4.0,45,0.00,,,0.00,Wunderground v.1.15,2013-04-19 00:25:00,
2013-04-18 20:35:00,53.1,31.7,30.14,SSE,161,4.0,7.0,44,0.00,,,0.00,Wunderground v.1.15,2013-04-19 00:35:00,
2013-04-18 20:40:00,52.9,32.1,30.14,SSE,159,3.0,3.0,45,0.00,,,0.00,Wunderground v.1.15,2013-04-19 00:40:00,
2013-04-18 20:50:00,52.6,31.8,30.13,SSE,165,2.0,4.0,45,0.00,,,0.00,Wunderground v.1.15,2013-04-19 00:50:00,
2013-04-18 20:55:00,52.6,31.8,30.13,SSE,150,3.0,5.0,45,0.00,,,0.00,Wunderground v.1.15,2013-04-19 00:55:00,
2013-04-18 21:00:00,52.4,31.7,30.13,South,178,3.0,4.0,45,0.00,,,0.00,Wunderground v.1.15,2013-04-19 01:00:00,
2013-04-18 21:05:00,52.3,31.6,30.13,SSE,167,2.0,4.0,45,0.00,,,0.00,Wunderground v.1.15,2013-04-19 01:05:00,
2013-04-18 21:15:00,52.2,32.0,30.13,SSW,209,2.0,3.0,46,0.00,,,0.00,Wunderground v.1.15,2013-04-19 01:15:00,
2013-04-18 21:20:00,52.0,31.8,30.13,South,180,2.0,2.0,46,0.00,,,0.00,Wunderground v.1.15,2013-04-19 01:20:00,
2013-04-18 21:30:00,51.9,30.6,30.14,South,187,2.0,2.0,44,0.00,,,0.00,Wunderground v.1.15,2013-04-19 01:30:00,
2013-04-18 21:35:00,51.8,30.6,30.14,SE,146,2.0,4.0,44,0.00,,,0.00,Wunderground v.1.15,2013-04-19 01:35:00,
2013-04-18 21:45:00,51.8,31.1,30.14,SSW,200,2.0,2.0,45,0.00,,,0.00,Wunderground v.1.15,2013-04-19 01:45:00,
2013-04-18 21:50:00,51.7,29.9,30.14,SSW,192,3.0,3.0,43,0.00,,,0.00,Wunderground v.1.15,2013-04-19 01:50:00,
2013-04-18 21:55:00,51.6,30.4,30.13,South,188,2.0,3.0,44,0.00,,,0.00,Wunderground v.1.15,2013-04-19 01:55:00,
2013-04-18 22:05:00,51.4,30.2,30.13,SSW,205,1.0,3.0,44,0.00,,,0.00,Wunderground v.1.15,2013-04-19 02:05:00,
2013-04-18 22:10:00,51.3,30.1,30.13,SSW,198,1.0,1.0,44,0.00,,,0.00,Wunderground v.1.15,2013-04-19 02:10:00,
2013-04-18 22:15:00,51.3,30.1,30.13,SSE,166,1.0,1.0,44,0.00,,,0.00,Wunderground v.1.15,2013-04-19 02:15:00,
2013-04-18 22:25:00,51.2,30.0,30.13,South,188,0.0,1.0,44,0.00,,,0.00,Wunderground v.1.15,2013-04-19 02:25:00,
2013-04-18 22:35:00,51.0,30.4,30.13,South,169,2.0,2.0,45,0.00,,,0.00,Wunderground v.1.15,2013-04-19 02:35:00,
2013-04-18 22:40:00,50.9,30.3,30.13,SSW,202,2.0,2.0,45,0.00,,,0.00,Wunderground v.1.15,2013-04-19 02:40:00,
2013-04-18 22:45:00,50.8,30.2,30.12,SE,143,2.0,2.0,45,0.00,,,0.00,Wunderground v.1.15,2013-04-19 02:45:00,
2013-04-18 22:55:00,50.7,30.7,30.12,SSE,163,1.0,2.0,46,0.00,,,0.00,Wunderground v.1.15,2013-04-19 02:55:00,
2013-04-18 23:00:00,50.5,30.5,30.12,SW,214,1.0,1.0,46,0.00,,,0.00,Wunderground v.1.15,2013-04-19 03:00:00,
2013-04-18 23:05:00,50.5,30.5,30.13,SSW,194,1.0,1.0,46,0.00,,,0.00,Wunderground v.1.15,2013-04-19 03:05:00,
2013-04-18 23:15:00,50.4,30.9,30.13,SSW,202,0.0,1.0,47,0.00,,,0.00,Wunderground v.1.15,2013-04-19 03:15:00,
2013-04-18 23:20:00,50.4,30.9,30.13,South,182,0.0,0.0,47,0.00,,,0.00,Wunderground v.1.15,2013-04-19 03:20:00,
2013-04-18 23:25:00,50.3,31.3,30.12,SSE,163,0.0,0.0,48,0.00,,,0.00,Wunderground v.1.15,2013-04-19 03:25:00,
2013-04-18 23:35:00,50.1,32.2,30.11,SSW,196,0.0,0.0,50,0.00,,,0.00,Wunderground v.1.15,2013-04-19 03:35:00,
2013-04-18 23:45:00,49.8,32.9,30.11,SSE,167,0.0,0.0,52,0.00,,,0.00,Wunderground v.1.15,2013-04-19 03:45:00,
2013-04-18 23:50:00,49.7,32.8,30.11,SSE,163,0.0,0.0,52,0.00,,,0.00,Wunderground v.1.15,2013-04-19 03:50:00,